Flag for Germany Weather past 2 weeks in Hildesheim, Lower Saxony, Germany

Now
37 °F

Passing clouds.


Feels Like: 34 °F
Forecast: 35 / 58 °F
Wind: 5 mph from Northwest

Location: Braunschweig

Current Time: Apr 28, 2015 at 7:32:24 AM

Latest Report: Apr 28, 2015 at 6:50 AM


Visibility: N/A

Pressure: 29.86 "Hg

Humidity: 100%

Dew point: 37 °F

Location of HildesheimLocation

Historic Weather in Hildesheim — Graph

°F

Hildesheim temperature yesterday

Maximum temperature yesterday: 50 °F (at 5:20 AM)
Minimum temperature yesterday: 45 °F (at 9:20 PM)
Average temperature yesterday: 47 °F

Past Weeks' High & Low Weather Summary

 TemperatureHumidityPressure
High73 °F (Apr 15, 4:20 PM)100% (Apr 14, 6:20 AM)30.39 "Hg (Apr 14, 6:20 AM)
Low34 °F (Apr 14, 6:20 AM)22% (Apr 21, 6:50 PM)29.59 "Hg (Apr 27, 6:50 AM)
Average54 °F64%30.08 "Hg
* Reported Apr 13 6:50 AM — Apr 27 10:20 PM, Hildesheim, Weather by CustomWeather, © 2015

Note: Actual official high and low records may vary slightly from our data, if they occured in-between our weather recording intervals... More about our weather records

Advertising

Hildesheim weather history for previous 24 hours

 ConditionsComfort  
Time TempWeatherWind HumidityBarometerVisibility
10:20 PM
Mon, Apr 27
45 °FPassing clouds.No wind100%29.77 "HgN/A
9:50 PM45 °FPartly cloudy.No wind100%29.77 "HgN/A
9:20 PM45 °FCloudy.No wind100%29.77 "HgN/A
8:50 PM46 °FLight rain. Overcast.2 mph100%29.77 "HgN/A
8:20 PM46 °FOvercast.5 mph100%29.74 "HgN/A
7:20 PM48 °FDrizzle. Partly sunny.5 mph100%29.74 "HgN/A
6:50 PM46 °FLight rain. Partly sunny.3 mph100%29.74 "HgN/A
6:20 PM48 °FLight rain. Partly sunny.6 mph100%29.74 "HgN/A
5:50 PM48 °FDrizzle. Partly sunny.7 mph94%29.74 "HgN/A
5:20 PM48 °FBroken clouds.7 mph100%29.74 "HgN/A
4:50 PM48 °FPartly sunny.9 mph94%29.74 "HgN/A
4:20 PM48 °FPartly sunny.8 mph100%29.74 "HgN/A
3:50 PM46 °FPartly sunny.10 mph100%29.74 "HgN/A
3:20 PM46 °FPartly sunny.10 mph100%29.74 "HgN/A
2:50 PM46 °FPartly sunny.9 mph100%29.74 "HgN/A
2:20 PM46 °FPartly sunny.9 mph100%29.71 "HgN/A
1:50 PM46 °FPartly sunny.10 mph100%29.71 "HgN/A
1:20 PM46 °FPartly sunny.12 mph100%29.71 "HgN/A
12:50 PM48 °FBroken clouds.9 mph100%29.71 "HgN/A
12:20 PM46 °FPartly sunny.9 mph100%29.68 "HgN/A
11:50 AM48 °FPartly sunny.10 mph100%29.68 "HgN/A
11:20 AM48 °FMostly cloudy.9 mph100%29.68 "HgN/A
10:50 AM48 °FLow clouds.9 mph100%29.65 "HgN/A
10:20 AM48 °FLow clouds.7 mph100%29.65 "HgN/A
9:50 AM48 °FBroken clouds.8 mph100%29.65 "Hg6 mi
9:20 AM48 °FLight rain. More clouds than sun.7 mph100%29.65 "Hg5 mi
8:50 AM48 °FLight rain. Cloudy.7 mph100%29.62 "Hg4 mi
8:20 AM48 °FLight rain. Cloudy.9 mph100%29.62 "Hg4 mi
7:50 AM48 °FLight rain. Mostly cloudy.8 mph100%29.62 "Hg4 mi
7:20 AM48 °FLight rain. Mostly cloudy.9 mph100%29.62 "Hg4 mi
Weather by CustomWeather, © 2015

See weather overviewHow to use our weather pages